Regional Weather Roundup
Issued by NWS

Home | Current Version | Previous Version | Graphics & Text | Print | Product List | Glossary On
Versions: 1 2 3 4 5 6 7 8 9 10 11 12 13 14 15 16 17 18 19 20 21 22 23 24 25 26 27
000
ASUS45 KSLC 031210
RWRUT

UTAH REGIONAL WEATHER ROUNDUP
NATIONAL WEATHER SERVICE SALT LAKE CITY UT
500 AM MST SAT DEC 03 2016

UTZ001>011-023>025-031300-

NORTHERN UTAH

CITY           SKY/WX    TMP DP  RH WIND       PRES   REMARKS
BRIGHAM CITY     N/A     28  23  82 CALM      30.26F
HILL AFB       CLOUDY    21  14  73 E9        30.24F WCI  11
LOGAN          CLOUDY   N/A N/A N/A CALM      30.23
OGDEN          CLOUDY    23  16  74 S9        30.24F WCI  13
SALT LAKE CITY MOCLDY    28  20  71 SE9       30.26F WCI  19
TOOELE VALLEY  CLOUDY    27  21  80 S12       30.25F WCI  16
WENDOVER       PTCLDY    25  16  68 E8        30.25S WCI  16
HEBER CITY     MOCLDY    12   9  85 CALM      30.24S
WEST JORDAN    CLOUDY    26  24  93 S9        30.25F WCI  16

$$

UTZ011>015-024>027-031300-

CENTRAL/NORTHEAST UTAH

CITY           SKY/WX    TMP DP  RH WIND       PRES   REMARKS
PROVO AIRPORT  CLOUDY    20  16  84 SE3       30.29
MOAB/CANYONLAN CLEAR     21  14  74 CALM      30.21R
DELTA          PTCLDY    16  14  93 NE5       30.28S WCI   9
PRICE          PTCLDY    15   7  70 NE5       30.17S WCI   8
RICHFIELD      PTCLDY    14  10  85 CALM      30.26F
ROOSEVELT      CLOUDY    16  10  79 SW5       30.24S WCI   9
VERNAL         CLOUDY    19  11  70 CALM      30.21S

$$

UTZ013>016-019>022-027-031300-

SOUTHERN UTAH

CITY           SKY/WX    TMP DP  RH WIND       PRES   REMARKS
BRYCE CANYON   NOT AVBL
CEDAR CITY     CLEAR     14   9  80 CALM      30.21F
MILFORD        CLEAR     15  11  83 CALM      30.25S
ST GEORGE      MOSUNNY   30  16  55 N7        30.24F WCI  23
HANKSVILLE     CLEAR     19  14  79 CALM      30.24S
KANAB          CLEAR     27  12  54 N12       30.21S WCI  16
BLANDING       CLEAR     21  16  80 CALM      30.18S

$$

REGIONAL REPORTS     COLORADO/ARIZONA

CITY           SKY/WX    TMP DP  RH WIND       PRES   REMARKS
CRAIG, CO      CLOUDY    10   5  80 CALM      30.19S
GRAND JUNCTION CLEAR     21  17  84 NW5       30.20S WCI  15
RIFLE, CO      CLOUDY    20  13  74 W6        30.21S WCI  12
MONTROSE, CO   CLOUDY    23  19  85 SE3       30.21R
CORTEZ, CO     CLOUDY    18  16  92 E6        30.11R WCI  10
COLORADO CITY    N/A     27  18  69 CALM      30.20F
PAGE, AZ       CLEAR     30  10  43 CALM      30.16S
GRAND CANYON   CLEAR    N/A N/A N/A NE5       30.09S
KINGMAN, AZ    CLEAR     34  11  38 NE16G22   30.12R WCI  24
FLAGSTAFF, AZ  CLEAR     24  13  62 NE20G29   30.04R WCI  10

$$

REGIONAL REPORTS    NEVADA/IDAHO/WYOMING

CITY           SKY/WX    TMP DP  RH WIND       PRES   REMARKS
LAS VEGAS, NV  CLEAR     45  10  24 N20G28    30.22
ELY, NY        CLEAR      4  -1  80 S12       30.23F WCI -12
ELKO, NV       CLOUDY    22  16  78 W3        30.27S
POCATELLO, ID  CLOUDY    28  19  69 S8        30.18F WCI  20
BURLEY, ID     CLOUDY    30  19  63 SW12      30.19F WCI  20
FORT BRIDGER,  CLOUDY    19  11  70 SW14G20   30.12F WCI   6
EVANSTON, WY   CLOUDY    14   8  77 SW16      30.13F WCI  -2
ROCK SPRINGS,  CLOUDY    14   7  73 SW20      30.08F WCI  -3

$$




USA.gov is the U.S. government's official web portal to all federal, state and local government web resources and services.